Flag for Germany Weather past 2 weeks in Trier, Rhineland-Palatinate, Germany

Now
50 °F

Partly sunny.


Feels Like: 50 °F
Forecast: 46 / 59 °F
Wind: 2 mph from Southwest

Location: Trier-Petrisberg

Current Time: May 25, 2015 at 7:59:48 AM

Latest Report: May 25, 2015 at 7:00 AM


Visibility: 9 mi

Pressure: 30.02 "Hg

Humidity: 97%

Dew point: 49 °F

Location of TrierLocation

Historic Weather in Trier — Graph

°F

Trier temperature yesterday

Maximum temperature yesterday: 70 °F (at 5:00 PM)
Minimum temperature yesterday: 54 °F (at 6:00 AM)
Average temperature yesterday: 61 °F

Past Weeks' High & Low Weather Summary

 TemperatureHumidityPressure
High80 °F (May 11, 5:00 PM)100% (May 21, 8:00 AM)30.35 "Hg (May 21, 8:00 AM)
Low37 °F (May 21, 7:00 AM)30% (May 21, 6:00 PM)29.70 "Hg (May 19, 1:00 AM)
Average57 °F69%30.09 "Hg
* Reported May 10 7:00 AM — May 25 6:00 AM, Trier, Weather by CustomWeather, © 2015

Note: Actual official high and low records may vary slightly from our data, if they occured in-between our weather recording intervals... More about our weather records

Advertising

Trier weather history for previous 24 hours

 ConditionsComfort  
Time TempWeatherWind HumidityBarometerVisibility
6:00 AM
Mon, May 25
49 °FScattered clouds.1 mph97%30.02 "Hg9 mi
5:00 AM50 °FPassing clouds.1 mph95%30.02 "Hg6 mi
4:00 AM52 °FPassing clouds.1 mph93%30.03 "Hg6 mi
3:00 AM52 °FClear.1 mph94%30.03 "Hg6 mi
2:00 AM55 °FClear.1 mph90%30.03 "Hg8 mi
1:00 AM58 °FPassing clouds.1 mph75%30.03 "Hg13 mi
12:00 AM60 °FOvercast.2 mph78%30.03 "Hg10 mi
11:00 PM
Sun, May 24
61 °FOvercast.1 mph75%30.03 "Hg11 mi
10:00 PM61 °FOvercast.2 mph74%30.03 "Hg11 mi
9:00 PM62 °FOvercast.1 mph73%30.02 "Hg11 mi
8:00 PM64 °FOvercast.1 mph71%30.02 "Hg11 mi
7:00 PM65 °FOvercast.1 mph63%30.02 "Hg12 mi
6:00 PM66 °FOvercast.3 mph60%30.03 "Hg12 mi
5:00 PM70 °FOvercast.2 mph51%30.03 "Hg12 mi
4:00 PM67 °FOvercast.2 mph56%30.05 "Hg9 mi
3:00 PM67 °FOvercast.1 mph55%30.05 "Hg12 mi
2:00 PM68 °FPartly sunny.1 mph64%30.06 "Hg11 mi
1:00 PM67 °FPartly sunny.2 mph60%30.07 "Hg9 mi
12:00 PM65 °FPartly sunny.2 mph70%30.09 "Hg9 mi
11:00 AM63 °FPartly sunny.3 mph75%30.10 "Hg8 mi
10:00 AM60 °FOvercast.3 mph79%30.11 "Hg7 mi
9:00 AM57 °FOvercast.3 mph82%30.11 "Hg6 mi
8:00 AM56 °FOvercast.3 mph86%30.11 "Hg5 mi
7:00 AM54 °FFog.3 mph88%30.11 "Hg4 mi
Weather by CustomWeather, © 2015

See weather overviewHow to use our weather pages